Weather Roundup
Issued by NWS

Home | Current Version | Previous Version | Graphics & Text | Print | Product List | Glossary Off
Versions: 1 2 3 4 5 6 7 8 9 10 11 12 13 14 15 16 17 18 19 20 21 22 23 24 25 26 27 28 29 30 31 32 33 34 35 36 37 38 39 40 41 42 43 44 45 46 47 48 49 50

859
NZUS93 KARX 260410
HRRWXR

CURRENT HOURLY OBSERVATIONS ACROSS
MUCH OF THE UPPER MISSISSIPPI VALLEY
NATIONAL WEATHER SERVICE LA CROSSE WI
1100 PM CDT SUN JUN 25 2017


...SOUTHEAST MINNESOTA...


CITY           SKY/WX    TMP DP  RH WIND       PRES   REMARKS
ROCHESTER      CLOUDY    57  43  59 W10       30.15S
ROCHESTER/MAYO CLOUDY    59  41  51 W10       30.14S
WINONA         CLEAR     55  48  76 NW3       30.12S
AUSTIN         MOCLDY    57  43  58 W3        30.15F
ALBERT LEA     PTCLDY    57  45  62 W3        30.16F
DODGE CENTER   PTCLDY    57  43  58 W7        30.14F
PRESTON        MOCLDY    53  42  67 W7        30.15S
OWATONNA       CLEAR     55  46  71 W7        30.15F
FARIBAULT      PTCLDY    57  46  67 W6        30.14F
$$

...ELSEWHERE IN MINNESOTA...


CITY           SKY/WX    TMP DP  RH WIND       PRES   REMARKS
MINNEAPOLIS    MOCLDY    60  43  53 W8        30.13S
INTNL FALLS    PTCLDY    46  43  89 NW6       30.13S
DULUTH         PTCLDY    46  44  93 N8        30.10S
RED WING       CLEAR     52  45  76 CALM      30.11S
REDWOOD FALLS  PTCLDY    55  48  77 CALM      30.18R
MANKATO        PTCLDY    57  47  69 W6        30.16S
WORTHINGTON    LGT RAIN  55  50  83 N8        30.20S
FAIRMONT       CLOUDY    60  45  57 W8        30.18S
$$

...SOUTHWEST WISCONSIN...


CITY           SKY/WX    TMP DP  RH WIND       PRES   REMARKS
LA CROSSE      CLEAR     63  47  55 NW8       30.10S
PRAIRIE DU CHI CLEAR     53  48  82 CALM      30.13R
BOSCOBEL       CLEAR     52  50  93 SW5       30.12S
LONE ROCK      CLEAR     54  48  80 CALM      30.11S
PLATTEVILLE    CLEAR     54  50  85 SW5       30.14S
FORT MC COY    MOCLDY    51  49  93 CALM      30.12S
CAMP DOUGLAS   MOCLDY    52  50  92 NW6       30.10F
MAUSTON-NEW LI MOCLDY    55  50  83 W3        30.10S
VIROQUA        FAIR      54  47  77 W6        30.12S
WIS DELLS      CLOUDY    54  51  90 W3        30.11S
$$

...ELSEWHERE IN WISCONSIN...


CITY           SKY/WX    TMP DP  RH WIND       PRES   REMARKS
MILWAUKEE      MOCLDY    59  54  83 W8        30.08F
MADISON        MOCLDY    54  51  90 W3        30.10S
GREEN BAY      PTCLDY    56  50  80 W10       30.04S
EAU CLAIRE     PTCLDY    49  48  97 CALM      30.10F
BLACK RVR FLS  FAIR      48  48 100 CALM      30.11S
MEDFORD        CLOUDY    50  48  93 W6        30.08S
WAUSAU         CLEAR     51  48  89 W9        30.05F
WIS RAPIDS     MOCLDY    52  48  86 W5        30.09F
MARSHFIELD     CLEAR     50  46  86 W6        30.08F
RICE LAKE      CLEAR     50  47  89 W3        30.13S
$$

...NORTHEAST IOWA...


CITY           SKY/WX    TMP DP  RH WIND       PRES   REMARKS
WATERLOO       PTCLDY    57  42  57 W6        30.16S
DUBUQUE        CLEAR     53  47  79 W3        30.15S
DECORAH        CLEAR     55  45  67 W5        30.14R
MASON CITY     CLEAR     56  42  59 W6        30.18F
CHARLES CITY   CLEAR     54  45  71 W5        30.16F
OELWEIN        CLEAR     54  46  76 W7        30.17S
$$

...ELSEWHERE IN IOWA...


CITY           SKY/WX    TMP DP  RH WIND       PRES   REMARKS
DES MOINES     CLEAR     65  43  44 CALM      30.19S
IOWA CITY      CLEAR     57  46  66 NW6       30.18S
FORT DODGE     PTCLDY    54  43  66 CALM      30.21R
MARSHALLTOWN   MOCLDY    57  45  64 NW5       30.18S
CEDAR RAPIDS   CLEAR     53  46  77 W6        30.16S
$$

...NORTHERN ILLINOIS...


CITY           SKY/WX    TMP DP  RH WIND       PRES   REMARKS
CHICAGO-OHARE  MOCLDY    62  49  62 W9        30.11R
CHICAGO-MIDWAY PTCLDY    62  49  62 W10       30.11S
MOLINE         CLEAR     56  50  80 CALM      30.16R
ROCKFORD       CLEAR     57  51  80 W6        30.13S
PEORIA         CLEAR     57  52  83 CALM      30.16S
$$

NOTE: "FAIR" INDICATES FEW OR NO CLOUDS BELOW 12,000 FEET WITH NO
SIGNIFICANT WEATHER AND/OR OBSTRUCTIONS TO VISIBILITY. WIND
SPEEDS ARE IN MILES-PER-HOUR.




USA.gov is the U.S. government's official web portal to all federal, state and local government web resources and services.